Time,TemperatureF,DewpointF,PressureIn,WindDirection,WindDirectionDegrees,WindSpeedMPH,WindSpeedGustMPH,Humidity,HourlyPrecipIn,Conditions,Clouds,dailyrainin,SoftwareType,DateUTC
2013-01-25 00:00:00,14.6,-8.1,30.25,NNW,337,3.0,15.0,35,0.00,,---,0.00,VWS V14.01,2013-01-25 05:00:00,
2013-01-25 00:01:00,14.6,-8.1,30.25,NNW,333,3.0,15.0,35,0.00,,---,0.00,VWS V14.01,2013-01-25 05:01:00,
2013-01-25 00:03:00,14.6,-8.1,30.25,NW,306,6.0,7.0,35,0.00,,---,0.00,VWS V14.01,2013-01-25 05:03:00,
2013-01-25 00:08:00,14.6,-8.1,30.25,NNW,329,6.0,10.0,35,0.00,,---,0.00,VWS V14.01,2013-01-25 05:08:00,
2013-01-25 00:13:00,14.6,-8.1,30.25,NNW,332,3.0,10.0,35,0.00,,---,0.00,VWS V14.01,2013-01-25 05:13:00,
2013-01-25 00:18:00,14.6,-8.1,30.25,NW,309,5.0,10.0,35,0.00,,---,0.00,VWS V14.01,2013-01-25 05:18:00,
2013-01-25 00:23:00,14.6,-8.1,30.25,NW,312,5.0,10.0,35,0.00,,---,0.00,VWS V14.01,2013-01-25 05:23:00,
2013-01-25 00:28:00,14.4,-8.2,30.25,NNW,333,5.0,10.0,35,0.00,,---,0.00,VWS V14.01,2013-01-25 05:28:00,
2013-01-25 00:30:00,14.6,-8.1,30.24,WNW,295,3.0,14.0,35,0.00,,---,0.00,VWS V14.01,2013-01-25 05:30:00,
2013-01-25 00:33:00,14.4,-8.2,30.25,WNW,288,7.0,7.0,35,0.00,,---,0.00,VWS V14.01,2013-01-25 05:33:00,
2013-01-25 00:38:00,14.4,-8.2,30.25,NW,304,2.0,7.0,35,0.00,,---,0.00,VWS V14.01,2013-01-25 05:38:00,
2013-01-25 00:43:00,14.4,-8.2,30.25,NW,304,2.0,7.0,35,0.00,,---,0.00,VWS V14.01,2013-01-25 05:43:00,
2013-01-25 00:48:00,14.3,-8.3,30.25,NNW,327,3.0,7.0,35,0.00,,---,0.00,VWS V14.01,2013-01-25 05:48:00,
2013-01-25 00:53:00,14.3,-8.3,30.25,NW,323,5.0,12.0,35,0.00,,---,0.00,VWS V14.01,2013-01-25 05:53:00,
2013-01-25 00:58:00,14.3,-8.3,30.25,NW,315,2.0,12.0,35,0.00,,---,0.00,VWS V14.01,2013-01-25 05:58:00,
2013-01-25 01:00:00,14.6,-8.1,30.25,NNW,333,2.0,15.0,35,0.00,,---,0.00,VWS V14.01,2013-01-25 06:00:00,
2013-01-25 01:03:00,14.1,-8.5,30.26,NW,316,2.0,5.0,35,0.00,,---,0.00,VWS V14.01,2013-01-25 06:03:00,
2013-01-25 01:08:00,14.1,-8.5,30.26,North,0,3.0,5.0,35,0.00,,---,0.00,VWS V14.01,2013-01-25 06:08:00,
2013-01-25 01:13:00,14.0,-8.6,30.26,WNW,285,3.0,7.0,35,0.00,,---,0.00,VWS V14.01,2013-01-25 06:13:00,
2013-01-25 01:18:00,13.8,-8.8,30.25,NNW,328,3.0,7.0,35,0.00,,---,0.00,VWS V14.01,2013-01-25 06:18:00,
2013-01-25 01:23:00,14.0,-8.6,30.25,NW,317,3.0,7.0,35,0.00,,---,0.00,VWS V14.01,2013-01-25 06:23:00,
2013-01-25 01:28:00,13.8,-8.8,30.25,WNW,293,0.0,7.0,35,0.00,,---,0.00,VWS V14.01,2013-01-25 06:28:00,
2013-01-25 01:30:00,14.4,-8.2,30.25,WNW,294,6.0,10.0,35,0.00,,---,0.00,VWS V14.01,2013-01-25 06:30:00,
2013-01-25 01:33:00,13.8,-8.8,30.26,WNW,293,0.0,2.0,35,0.00,,---,0.00,VWS V14.01,2013-01-25 06:33:00,
2013-01-25 01:38:00,13.6,-9.0,30.26,WNW,293,2.0,4.0,35,0.00,,---,0.00,VWS V14.01,2013-01-25 06:38:00,
2013-01-25 01:43:00,13.6,-9.0,30.26,WNW,293,2.0,4.0,35,0.00,,---,0.00,VWS V14.01,2013-01-25 06:43:00,
2013-01-25 01:48:00,13.5,-9.1,30.27,WNW,293,3.0,4.0,35,0.00,,---,0.00,VWS V14.01,2013-01-25 06:48:00,
2013-01-25 01:53:00,13.3,-8.6,30.27,WNW,293,1.0,4.0,36,0.00,,---,0.00,VWS V14.01,2013-01-25 06:53:00,
2013-01-25 01:58:00,12.9,-9.0,30.27,WNW,293,2.0,4.0,36,0.00,,---,0.00,VWS V14.01,2013-01-25 06:58:00,
2013-01-25 02:00:00,14.3,-8.3,30.26,NW,316,4.0,12.0,35,0.00,,---,0.00,VWS V14.01,2013-01-25 07:00:00,
2013-01-25 02:03:00,12.8,-9.1,30.27,WNW,293,2.0,2.0,36,0.00,,---,0.00,VWS V14.01,2013-01-25 07:03:00,
2013-01-25 02:08:00,12.6,-9.3,30.27,WNW,293,3.0,4.0,36,0.00,,---,0.00,VWS V14.01,2013-01-25 07:08:00,
2013-01-25 02:13:00,12.4,-9.5,30.27,WNW,293,1.0,6.0,36,0.00,,---,0.00,VWS V14.01,2013-01-25 07:13:00,
2013-01-25 02:18:00,12.4,-9.5,30.27,WNW,293,2.0,6.0,36,0.00,,---,0.00,VWS V14.01,2013-01-25 07:18:00,
2013-01-25 02:23:00,12.3,-9.6,30.27,WNW,293,3.0,6.0,36,0.00,,---,0.00,VWS V14.01,2013-01-25 07:23:00,
2013-01-25 02:28:00,12.3,-9.6,30.27,WNW,299,5.0,6.0,36,0.00,,---,0.00,VWS V14.01,2013-01-25 07:28:00,
2013-01-25 02:30:00,13.8,-8.8,30.26,WNW,293,1.0,7.0,35,0.00,,---,0.00,VWS V14.01,2013-01-25 07:30:00,
2013-01-25 02:33:00,12.4,-9.5,30.27,WNW,300,10.0,10.0,36,0.00,,---,0.00,VWS V14.01,2013-01-25 07:33:00,
2013-01-25 02:38:00,12.9,-9.0,30.27,NW,311,5.0,11.0,36,0.00,,---,0.00,VWS V14.01,2013-01-25 07:38:00,
2013-01-25 02:43:00,13.3,-8.6,30.27,West,269,7.0,11.0,36,0.00,,---,0.00,VWS V14.01,2013-01-25 07:43:00,
2013-01-25 02:48:00,13.5,-9.1,30.28,NW,306,7.0,11.0,35,0.00,,---,0.00,VWS V14.01,2013-01-25 07:48:00,
2013-01-25 02:53:00,13.5,-9.1,30.28,NW,320,10.0,14.0,35,0.00,,---,0.00,VWS V14.01,2013-01-25 07:53:00,
2013-01-25 02:58:00,13.8,-8.8,30.28,NW,305,11.0,14.0,35,0.00,,---,0.00,VWS V14.01,2013-01-25 07:58:00,
2013-01-25 03:00:00,12.9,-9.0,30.27,WNW,293,2.0,4.0,36,0.00,,---,0.00,VWS V14.01,2013-01-25 08:00:00,
2013-01-25 03:03:00,13.8,-8.8,30.28,NW,304,2.0,6.0,35,0.00,,---,0.00,VWS V14.01,2013-01-25 08:03:00,
2013-01-25 03:08:00,13.6,-9.0,30.28,WNW,299,9.0,16.0,35,0.00,,---,0.00,VWS V14.01,2013-01-25 08:08:00,
2013-01-25 03:13:00,13.6,-9.0,30.28,NW,314,3.0,16.0,35,0.00,,---,0.00,VWS V14.01,2013-01-25 08:13:00,
2013-01-25 03:18:00,13.6,-9.0,30.28,NW,305,6.0,16.0,35,0.00,,---,0.00,VWS V14.01,2013-01-25 08:18:00,
2013-01-25 03:23:00,13.6,-9.0,30.28,NNW,328,5.0,16.0,35,0.00,,---,0.00,VWS V14.01,2013-01-25 08:23:00,
2013-01-25 03:28:00,13.5,-9.1,30.28,WNW,283,4.0,16.0,35,0.00,,---,0.00,VWS V14.01,2013-01-25 08:28:00,
2013-01-25 03:30:00,12.3,-9.6,30.27,WNW,303,5.0,6.0,36,0.00,,---,0.00,VWS V14.01,2013-01-25 08:30:00,
2013-01-25 03:33:00,13.5,-9.1,30.28,NW,306,1.0,10.0,35,0.00,,---,0.00,VWS V14.01,2013-01-25 08:33:00,
2013-01-25 03:38:00,13.5,-8.5,30.28,WNW,283,3.0,10.0,36,0.00,,---,0.00,VWS V14.01,2013-01-25 08:38:00,
2013-01-25 03:43:00,13.1,-8.8,30.28,WNW,299,3.0,10.0,36,0.00,,---,0.00,VWS V14.01,2013-01-25 08:43:00,
2013-01-25 03:48:00,12.8,-9.1,30.28,WNW,298,3.0,10.0,36,0.00,,---,0.00,VWS V14.01,2013-01-25 08:48:00,
2013-01-25 03:53:00,12.4,-9.5,30.28,WNW,291,5.0,10.0,36,0.00,,---,0.00,VWS V14.01,2013-01-25 08:53:00,
2013-01-25 03:58:00,12.1,-9.7,30.28,West,270,3.0,10.0,36,0.00,,---,0.00,VWS V14.01,2013-01-25 08:58:00,
2013-01-25 04:00:00,13.8,-8.8,30.28,NW,307,4.0,14.0,35,0.00,,---,0.00,VWS V14.01,2013-01-25 09:00:00,
2013-01-25 04:03:00,11.7,-10.1,30.28,West,270,4.0,5.0,36,0.00,,---,0.00,VWS V14.01,2013-01-25 09:03:00,
2013-01-25 04:08:00,11.6,-10.2,30.28,West,271,2.0,5.0,36,0.00,,---,0.00,VWS V14.01,2013-01-25 09:08:00,
2013-01-25 04:13:00,11.6,-10.2,30.28,WNW,303,2.0,5.0,36,0.00,,---,0.00,VWS V14.01,2013-01-25 09:13:00,
2013-01-25 04:18:00,11.4,-10.4,30.27,WNW,283,3.0,6.0,36,0.00,,---,0.00,VWS V14.01,2013-01-25 09:18:00,
2013-01-25 04:23:00,11.4,-10.4,30.27,WNW,288,3.0,6.0,36,0.00,,---,0.00,VWS V14.01,2013-01-25 09:23:00,
2013-01-25 04:28:00,11.6,-10.2,30.27,WNW,296,4.0,7.0,36,0.00,,---,0.00,VWS V14.01,2013-01-25 09:28:00,
2013-01-25 04:30:00,13.5,-9.1,30.28,NNW,340,2.0,16.0,35,0.00,,---,0.00,VWS V14.01,2013-01-25 09:30:00,
2013-01-25 04:33:00,11.6,-10.2,30.27,WNW,297,7.0,7.0,36,0.00,,---,0.00,VWS V14.01,2013-01-25 09:33:00,
2013-01-25 04:38:00,11.7,-10.1,30.27,WNW,288,5.0,10.0,36,0.00,,---,0.00,VWS V14.01,2013-01-25 09:38:00,
2013-01-25 04:44:00,11.7,-10.1,30.27,WNW,285,9.0,10.0,36,0.00,,---,0.00,VWS V14.01,2013-01-25 09:44:00,
2013-01-25 04:49:00,11.9,-9.9,30.27,West,281,8.0,12.0,36,0.00,,---,0.00,VWS V14.01,2013-01-25 09:49:00,
2013-01-25 04:54:00,11.9,-9.9,30.27,West,279,5.0,12.0,36,0.00,,---,0.00,VWS V14.01,2013-01-25 09:54:00,
2013-01-25 04:59:00,11.7,-10.1,30.27,WNW,283,3.0,12.0,36,0.00,,---,0.00,VWS V14.01,2013-01-25 09:59:00,
2013-01-25 05:00:00,11.9,-9.9,30.28,West,270,4.0,10.0,36,0.00,,---,0.00,VWS V14.01,2013-01-25 10:00:00,
2013-01-25 05:04:00,11.7,-10.1,30.28,WNW,285,3.0,5.0,36,0.00,,---,0.00,VWS V14.01,2013-01-25 10:04:00,
2013-01-25 05:09:00,11.6,-10.2,30.28,WNW,285,3.0,5.0,36,0.00,,---,0.00,VWS V14.01,2013-01-25 10:09:00,
2013-01-25 05:14:00,11.4,-10.4,30.28,WNW,302,1.0,6.0,36,0.00,,---,0.00,VWS V14.01,2013-01-25 10:14:00,
2013-01-25 05:19:00,11.4,-10.4,30.29,WNW,302,3.0,6.0,36,0.00,,---,0.00,VWS V14.01,2013-01-25 10:19:00,
2013-01-25 05:24:00,11.4,-10.4,30.29,WNW,293,2.0,7.0,36,0.00,,---,0.00,VWS V14.01,2013-01-25 10:24:00,
2013-01-25 05:29:00,11.4,-10.4,30.29,WNW,292,4.0,7.0,36,0.00,,---,0.00,VWS V14.01,2013-01-25 10:29:00,
2013-01-25 05:30:00,11.6,-10.2,30.27,West,280,5.0,7.0,36,0.00,,---,0.00,VWS V14.01,2013-01-25 10:30:00,
2013-01-25 05:34:00,11.2,-10.5,30.29,WNW,290,4.0,4.0,36,0.00,,---,0.00,VWS V14.01,2013-01-25 10:34:00,
2013-01-25 05:39:00,11.2,-10.5,30.29,WNW,291,2.0,6.0,36,0.00,,---,0.00,VWS V14.01,2013-01-25 10:39:00,
2013-01-25 05:44:00,11.1,-10.6,30.29,WNW,291,3.0,6.0,36,0.00,,---,0.00,VWS V14.01,2013-01-25 10:44:00,
2013-01-25 05:49:00,10.9,-10.8,30.29,WNW,291,3.0,6.0,36,0.00,,---,0.00,VWS V14.01,2013-01-25 10:49:00,
2013-01-25 05:54:00,10.9,-10.8,30.29,WNW,291,1.0,6.0,36,0.00,,---,0.00,VWS V14.01,2013-01-25 10:54:00,
2013-01-25 05:59:00,10.7,-10.4,30.29,WNW,291,3.0,6.0,37,0.00,,---,0.00,VWS V14.01,2013-01-25 10:59:00,
2013-01-25 06:00:00,11.9,-9.9,30.28,WNW,285,3.0,12.0,36,0.00,,---,0.00,VWS V14.01,2013-01-25 11:00:00,
2013-01-25 06:04:00,10.7,-11.0,30.29,WNW,301,3.0,5.0,36,0.00,,---,0.00,VWS V14.01,2013-01-25 11:04:00,
2013-01-25 06:09:00,10.7,-11.0,30.29,WNW,295,2.0,5.0,36,0.00,,---,0.00,VWS V14.01,2013-01-25 11:09:00,
2013-01-25 06:14:00,10.9,-10.8,30.29,NW,321,3.0,6.0,36,0.00,,---,0.00,VWS V14.01,2013-01-25 11:14:00,
2013-01-25 06:19:00,11.1,-10.6,30.28,WNW,283,4.0,12.0,36,0.00,,---,0.00,VWS V14.01,2013-01-25 11:19:00,
2013-01-25 06:24:00,11.4,-10.4,30.28,West,264,3.0,12.0,36,0.00,,---,0.00,VWS V14.01,2013-01-25 11:24:00,
2013-01-25 06:29:00,11.6,-10.2,30.28,NW,304,3.0,12.0,36,0.00,,---,0.00,VWS V14.01,2013-01-25 11:29:00,
2013-01-25 06:30:00,11.4,-10.4,30.29,WNW,292,2.0,7.0,36,0.00,,---,0.00,VWS V14.01,2013-01-25 11:30:00,
2013-01-25 06:34:00,11.6,-10.2,30.29,WNW,302,3.0,7.0,36,0.00,,---,0.00,VWS V14.01,2013-01-25 11:34:00,
2013-01-25 06:39:00,11.6,-10.2,30.29,NW,318,5.0,13.0,36,0.00,,---,0.00,VWS V14.01,2013-01-25 11:39:00,
2013-01-25 06:44:00,11.6,-10.8,30.29,NNW,335,4.0,13.0,35,0.00,,---,0.00,VWS V14.01,2013-01-25 11:44:00,
2013-01-25 06:49:00,11.7,-10.7,30.28,NW,317,3.0,13.0,35,0.00,,---,0.00,VWS V14.01,2013-01-25 11:49:00,
2013-01-25 06:54:00,11.6,-10.8,30.28,NW,315,5.0,13.0,35,0.00,,---,0.00,VWS V14.01,2013-01-25 11:54:00,
2013-01-25 06:59:00,11.7,-10.7,30.28,NW,314,5.0,13.0,35,0.00,,---,0.00,VWS V14.01,2013-01-25 11:59:00,
2013-01-25 07:00:00,10.7,-11.0,30.29,WNW,295,3.0,7.0,36,0.00,,---,0.00,VWS V14.01,2013-01-25 12:00:00,
2013-01-25 07:04:00,11.7,-10.7,30.29,WNW,296,4.0,10.0,35,0.00,,---,0.00,VWS V14.01,2013-01-25 12:04:00,
2013-01-25 07:09:00,11.7,-10.7,30.29,NNW,341,6.0,10.0,35,0.00,,---,0.00,VWS V14.01,2013-01-25 12:09:00,
2013-01-25 07:14:00,11.9,-10.5,30.29,WNW,285,9.0,12.0,35,0.00,,---,0.00,VWS V14.01,2013-01-25 12:14:00,
2013-01-25 07:19:00,11.9,-10.5,30.30,NW,304,7.0,12.0,35,0.00,,---,0.00,VWS V14.01,2013-01-25 12:19:00,
2013-01-25 07:24:00,11.9,-10.5,30.30,WNW,301,4.0,13.0,35,0.00,,---,0.00,VWS V14.01,2013-01-25 12:24:00,
2013-01-25 07:29:00,11.9,-10.5,30.30,NNW,337,3.0,13.0,35,0.00,,---,0.00,VWS V14.01,2013-01-25 12:29:00,
2013-01-25 07:30:00,11.6,-10.2,30.29,WNW,285,5.0,12.0,36,0.00,,---,0.00,VWS V14.01,2013-01-25 12:30:00,
2013-01-25 07:34:00,12.1,-10.3,30.30,WNW,297,2.0,9.0,35,0.00,,---,0.00,VWS V14.01,2013-01-25 12:34:00,
2013-01-25 07:39:00,12.1,-10.3,30.30,NW,311,6.0,16.0,35,0.00,,---,0.00,VWS V14.01,2013-01-25 12:39:00,
2013-01-25 07:44:00,12.3,-10.1,30.30,West,274,8.0,16.0,35,0.00,,---,0.00,VWS V14.01,2013-01-25 12:44:00,
2013-01-25 07:49:00,12.4,-10.0,30.30,NNW,333,5.0,16.0,35,0.00,,---,0.00,VWS V14.01,2013-01-25 12:49:00,
2013-01-25 07:54:00,12.4,-10.0,30.30,NW,323,5.0,16.0,35,0.00,,---,0.00,VWS V14.01,2013-01-25 12:54:00,
2013-01-25 07:59:00,12.6,-9.9,30.30,WNW,288,4.0,16.0,35,0.00,,---,0.00,VWS V14.01,2013-01-25 12:59:00,
2013-01-25 08:00:00,11.7,-10.7,30.29,NW,315,5.0,13.0,35,0.00,,---,0.00,VWS V14.01,2013-01-25 13:00:00,
2013-01-25 08:04:00,12.8,-9.7,30.31,NW,321,5.0,9.0,35,0.00,,---,0.00,VWS V14.01,2013-01-25 13:04:00,
2013-01-25 08:09:00,13.1,-9.4,30.31,NNW,340,2.0,9.0,35,0.00,,---,0.00,VWS V14.01,2013-01-25 13:09:00,
2013-01-25 08:14:00,13.3,-9.2,30.31,NNW,327,4.0,9.0,35,0.00,,---,0.00,VWS V14.01,2013-01-25 13:14:00,
2013-01-25 08:19:00,13.6,-9.0,30.31,NW,321,3.0,10.0,35,0.00,,---,0.00,VWS V14.01,2013-01-25 13:19:00,
2013-01-25 08:24:00,13.8,-8.8,30.31,NW,313,4.0,10.0,35,0.00,,---,0.00,VWS V14.01,2013-01-25 13:24:00,
2013-01-25 08:29:00,14.0,-8.6,30.31,NW,317,4.0,14.0,35,0.00,,---,0.00,VWS V14.01,2013-01-25 13:29:00,
2013-01-25 08:30:00,11.9,-10.5,30.30,NNW,342,8.0,13.0,35,0.00,,---,0.00,VWS V14.01,2013-01-25 13:30:00,
2013-01-25 08:34:00,14.0,-9.2,30.30,North,349,7.0,14.0,34,0.00,,---,0.00,VWS V14.01,2013-01-25 13:34:00,
2013-01-25 08:39:00,14.0,-8.6,30.30,NNW,342,3.0,14.0,35,0.00,,---,0.00,VWS V14.01,2013-01-25 13:39:00,
2013-01-25 08:44:00,14.1,-8.5,30.30,NNW,345,7.0,14.0,35,0.00,,---,0.00,VWS V14.01,2013-01-25 13:44:00,
2013-01-25 08:49:00,14.1,-9.1,30.30,NW,321,3.0,14.0,34,0.00,,---,0.00,VWS V14.01,2013-01-25 13:49:00,
2013-01-25 08:54:00,14.3,-8.9,30.30,NW,322,5.0,14.0,34,0.00,,---,0.00,VWS V14.01,2013-01-25 13:54:00,
2013-01-25 08:59:00,14.4,-8.8,30.30,NNW,327,10.0,14.0,34,0.00,,---,0.00,VWS V14.01,2013-01-25 13:59:00,
2013-01-25 09:00:00,12.6,-9.9,30.31,NW,321,4.0,16.0,35,0.00,,---,0.00,VWS V14.01,2013-01-25 14:00:00,
2013-01-25 09:04:00,14.4,-8.8,30.29,WNW,297,6.0,11.0,34,0.00,,---,0.00,VWS V14.01,2013-01-25 14:04:00,
2013-01-25 09:09:00,14.8,-8.5,30.29,North,358,5.0,11.0,34,0.00,,---,0.00,VWS V14.01,2013-01-25 14:09:00,
2013-01-25 09:14:00,15.1,-8.2,30.29,West,279,2.0,11.0,34,0.00,,---,0.00,VWS V14.01,2013-01-25 14:14:00,
2013-01-25 09:19:00,15.1,-8.2,30.31,NW,322,3.0,11.0,34,0.00,,---,0.00,VWS V14.01,2013-01-25 14:19:00,
2013-01-25 09:24:00,14.9,-8.4,30.31,NNW,340,1.0,12.0,34,0.00,,---,0.00,VWS V14.01,2013-01-25 14:24:00,
2013-01-25 09:29:00,15.1,-8.2,30.31,North,349,4.0,12.0,34,0.00,,---,0.00,VWS V14.01,2013-01-25 14:29:00,
2013-01-25 09:30:00,14.0,-8.6,30.30,NW,317,5.0,14.0,35,0.00,,---,0.00,VWS V14.01,2013-01-25 14:30:00,
2013-01-25 09:34:00,15.2,-8.1,30.31,NW,304,9.0,13.0,34,0.00,,---,0.00,VWS V14.01,2013-01-25 14:34:00,
2013-01-25 09:39:00,15.1,-8.2,30.31,NW,310,5.0,13.0,34,0.00,,---,0.00,VWS V14.01,2013-01-25 14:39:00,
2013-01-25 09:44:00,15.4,-7.9,30.31,NNW,328,6.0,13.0,34,0.00,,---,0.00,VWS V14.01,2013-01-25 14:44:00,
2013-01-25 09:49:00,15.7,-7.7,30.30,NNW,346,6.0,13.0,34,0.00,,---,0.00,VWS V14.01,2013-01-25 14:49:00,
2013-01-25 09:54:00,15.6,-7.8,30.30,NW,309,6.0,13.0,34,0.00,,---,0.00,VWS V14.01,2013-01-25 14:54:00,
2013-01-25 09:59:00,15.6,-7.8,30.30,NW,315,13.0,18.0,34,0.00,,---,0.00,VWS V14.01,2013-01-25 14:59:00,
2013-01-25 10:00:00,14.4,-8.8,30.29,NW,324,9.0,14.0,34,0.00,,---,0.00,VWS V14.01,2013-01-25 15:00:00,
2013-01-25 10:04:00,15.7,-7.7,30.30,NNW,344,5.0,11.0,34,0.00,,---,0.00,VWS V14.01,2013-01-25 15:04:00,
2013-01-25 10:09:00,15.9,-7.5,30.30,NNW,330,5.0,11.0,34,0.00,,---,0.00,VWS V14.01,2013-01-25 15:09:00,
2013-01-25 10:14:00,16.1,-7.3,30.30,NNW,330,4.0,11.0,34,0.00,,---,0.00,VWS V14.01,2013-01-25 15:14:00,
2013-01-25 10:19:00,16.1,-7.3,30.30,NNW,345,5.0,15.0,34,0.00,,---,0.00,VWS V14.01,2013-01-25 15:19:00,
2013-01-25 10:24:00,16.2,-7.2,30.30,West,281,4.0,15.0,34,0.00,,---,0.00,VWS V14.01,2013-01-25 15:24:00,
2013-01-25 10:29:00,16.5,-7.0,30.30,WNW,289,10.0,15.0,34,0.00,,---,0.00,VWS V14.01,2013-01-25 15:29:00,
2013-01-25 10:30:00,15.1,-8.2,30.31,North,5,5.0,12.0,34,0.00,,---,0.00,VWS V14.01,2013-01-25 15:30:00,
2013-01-25 10:34:00,16.7,-6.8,30.31,NNW,337,8.0,9.0,34,0.00,,---,0.00,VWS V14.01,2013-01-25 15:34:00,
2013-01-25 10:39:00,16.7,-6.8,30.31,North,0,8.0,13.0,34,0.00,,---,0.00,VWS V14.01,2013-01-25 15:39:00,
2013-01-25 10:44:00,16.9,-6.6,30.31,NW,317,5.0,13.0,34,0.00,,---,0.00,VWS V14.01,2013-01-25 15:44:00,
2013-01-25 10:49:00,17.2,-6.3,30.30,North,352,1.0,14.0,34,0.00,,---,0.00,VWS V14.01,2013-01-25 15:49:00,
2013-01-25 10:54:00,17.3,-6.2,30.30,NNW,340,4.0,14.0,34,0.00,,---,0.00,VWS V14.01,2013-01-25 15:54:00,
2013-01-25 10:59:00,17.7,-5.9,30.30,NW,307,3.0,14.0,34,0.00,,---,0.00,VWS V14.01,2013-01-25 15:59:00,
2013-01-25 11:00:00,15.7,-7.7,30.30,NNE,22,4.0,18.0,34,0.00,,---,0.00,VWS V14.01,2013-01-25 16:00:00,
2013-01-25 11:04:00,18.3,-5.4,30.30,WNW,297,9.0,10.0,34,0.00,,---,0.00,VWS V14.01,2013-01-25 16:04:00,
2013-01-25 11:09:00,18.8,-4.9,30.30,WNW,287,10.0,12.0,34,0.00,,---,0.00,VWS V14.01,2013-01-25 16:09:00,
2013-01-25 11:14:00,18.9,-5.4,30.30,WNW,290,5.0,13.0,33,0.00,,---,0.00,VWS V14.01,2013-01-25 16:14:00,
2013-01-25 11:19:00,19.1,-4.7,30.29,WNW,286,10.0,13.0,34,0.00,,---,0.00,VWS V14.01,2013-01-25 16:19:00,
2013-01-25 11:24:00,19.1,-5.3,30.29,NW,313,5.0,13.0,33,0.00,,---,0.00,VWS V14.01,2013-01-25 16:24:00,
2013-01-25 11:29:00,19.4,-5.0,30.29,NW,316,6.0,13.0,33,0.00,,---,0.00,VWS V14.01,2013-01-25 16:29:00,
2013-01-25 11:30:00,16.5,-7.0,30.31,North,356,5.0,15.0,34,0.00,,---,0.00,VWS V14.01,2013-01-25 16:30:00,
2013-01-25 11:34:00,19.7,-4.7,30.28,WNW,289,7.0,7.0,33,0.00,,---,0.00,VWS V14.01,2013-01-25 16:34:00,
2013-01-25 11:39:00,19.9,-4.6,30.28,West,281,3.0,8.0,33,0.00,,---,0.00,VWS V14.01,2013-01-25 16:39:00,
2013-01-25 11:44:00,20.0,-4.5,30.28,NW,313,2.0,11.0,33,0.00,,---,0.00,VWS V14.01,2013-01-25 16:44:00,
2013-01-25 11:49:00,20.3,-4.2,30.26,West,273,6.0,11.0,33,0.00,,---,0.00,VWS V14.01,2013-01-25 16:49:00,
2013-01-25 11:54:00,20.3,-4.2,30.26,NNW,330,3.0,11.0,33,0.00,,---,0.00,VWS V14.01,2013-01-25 16:54:00,
2013-01-25 11:59:00,20.6,-3.9,30.26,North,358,5.0,11.0,33,0.00,,---,0.00,VWS V14.01,2013-01-25 16:59:00,
2013-01-25 12:00:00,17.8,-5.8,30.30,NW,313,4.0,14.0,34,0.00,,---,0.00,VWS V14.01,2013-01-25 17:00:00,
2013-01-25 12:04:00,20.6,-3.9,30.24,North,6,7.0,12.0,33,0.00,,---,0.00,VWS V14.01,2013-01-25 17:04:00,
2013-01-25 12:09:00,20.8,-3.8,30.24,WNW,302,3.0,12.0,33,0.00,,---,0.00,VWS V14.01,2013-01-25 17:09:00,
2013-01-25 12:14:00,21.1,-3.5,30.24,North,357,5.0,12.0,33,0.00,,---,0.00,VWS V14.01,2013-01-25 17:14:00,
2013-01-25 12:19:00,21.0,-3.6,30.24,North,8,5.0,12.0,33,0.00,,---,0.00,VWS V14.01,2013-01-25 17:19:00,
2013-01-25 12:24:00,20.8,-3.8,30.24,NNE,29,4.0,12.0,33,0.00,,---,0.00,VWS V14.01,2013-01-25 17:24:00,
2013-01-25 12:29:00,21.1,-3.5,30.24,NNW,328,5.0,12.0,33,0.00,,---,0.00,VWS V14.01,2013-01-25 17:29:00,
2013-01-25 12:30:00,19.4,-5.0,30.28,WNW,290,7.0,13.0,33,0.00,,---,0.00,VWS V14.01,2013-01-25 17:30:00,
2013-01-25 12:34:00,21.3,-3.3,30.22,WNW,302,4.0,8.0,33,0.00,,---,0.00,VWS V14.01,2013-01-25 17:34:00,
2013-01-25 12:39:00,21.3,-3.3,30.22,NW,317,2.0,9.0,33,0.00,,---,0.00,VWS V14.01,2013-01-25 17:39:00,
2013-01-25 12:44:00,21.6,-3.0,30.22,NNW,333,5.0,9.0,33,0.00,,---,0.00,VWS V14.01,2013-01-25 17:44:00,
2013-01-25 12:49:00,21.8,-2.9,30.21,NW,321,1.0,9.0,33,0.00,,---,0.00,VWS V14.01,2013-01-25 17:49:00,
2013-01-25 12:54:00,21.8,-2.9,30.21,NW,323,4.0,9.0,33,0.00,,---,0.00,VWS V14.01,2013-01-25 17:54:00,
2013-01-25 12:59:00,22.1,-2.6,30.21,NNE,27,3.0,9.0,33,0.00,,---,0.00,VWS V14.01,2013-01-25 17:59:00,
2013-01-25 13:00:00,20.6,-3.9,30.24,NNE,25,4.0,11.0,33,0.00,,---,0.00,VWS V14.01,2013-01-25 18:00:00,
2013-01-25 13:04:00,22.4,-2.3,30.19,NNW,340,2.0,6.0,33,0.00,,---,0.00,VWS V14.01,2013-01-25 18:04:00,
2013-01-25 13:09:00,22.5,-2.2,30.19,NNW,343,3.0,6.0,33,0.00,,---,0.00,VWS V14.01,2013-01-25 18:09:00,
2013-01-25 13:14:00,22.9,-1.9,30.19,WNW,289,5.0,10.0,33,0.00,,---,0.00,VWS V14.01,2013-01-25 18:14:00,
2013-01-25 13:19:00,22.9,-1.9,30.18,NNW,345,3.0,10.0,33,0.00,,---,0.00,VWS V14.01,2013-01-25 18:19:00,
2013-01-25 13:24:00,22.9,-1.9,30.18,North,349,2.0,10.0,33,0.00,,---,0.00,VWS V14.01,2013-01-25 18:24:00,
2013-01-25 13:29:00,23.2,-1.6,30.18,NNW,335,6.0,10.0,33,0.00,,---,0.00,VWS V14.01,2013-01-25 18:29:00,
2013-01-25 13:30:00,21.3,-3.3,30.22,NNW,342,3.0,12.0,33,0.00,,---,0.00,VWS V14.01,2013-01-25 18:30:00,
2013-01-25 13:34:00,23.0,-1.8,30.18,NW,322,4.0,5.0,33,0.00,,---,0.00,VWS V14.01,2013-01-25 18:34:00,
2013-01-25 13:39:00,23.3,-1.5,30.18,NNW,328,1.0,5.0,33,0.00,,---,0.00,VWS V14.01,2013-01-25 18:39:00,
2013-01-25 13:44:00,23.6,-1.3,30.18,NW,311,2.0,5.0,33,0.00,,---,0.00,VWS V14.01,2013-01-25 18:44:00,
2013-01-25 13:49:00,23.9,-1.0,30.17,NW,310,4.0,5.0,33,0.00,,---,0.00,VWS V14.01,2013-01-25 18:49:00,
2013-01-25 13:54:00,24.1,-0.8,30.17,West,269,2.0,5.0,33,0.00,,---,0.00,VWS V14.01,2013-01-25 18:54:00,
2013-01-25 13:59:00,24.2,-0.7,30.17,NW,325,1.0,6.0,33,0.00,,---,0.00,VWS V14.01,2013-01-25 18:59:00,
2013-01-25 14:00:00,22.1,-2.6,30.19,NNE,22,3.0,9.0,33,0.00,,---,0.00,VWS V14.01,2013-01-25 19:00:00,
2013-01-25 14:04:00,24.2,-0.7,30.17,WNW,298,2.0,5.0,33,0.00,,---,0.00,VWS V14.01,2013-01-25 19:04:00,
2013-01-25 14:09:00,24.2,-0.7,30.17,NNW,333,1.0,5.0,33,0.00,,---,0.00,VWS V14.01,2013-01-25 19:09:00,
2013-01-25 14:14:00,24.5,-0.5,30.17,NNW,334,2.0,5.0,33,0.00,,---,0.00,VWS V14.01,2013-01-25 19:14:00,
2013-01-25 14:19:00,24.5,-0.5,30.17,NW,313,2.0,5.0,33,0.00,,---,0.00,VWS V14.01,2013-01-25 19:19:00,
2013-01-25 14:24:00,24.5,-0.5,30.17,NW,316,2.0,6.0,33,0.00,,---,0.00,VWS V14.01,2013-01-25 19:24:00,
2013-01-25 14:29:00,24.4,-0.6,30.17,NNW,335,3.0,6.0,33,0.00,,---,0.00,VWS V14.01,2013-01-25 19:29:00,
2013-01-25 14:30:00,23.0,-1.8,30.18,North,2,3.0,10.0,33,0.00,,---,0.00,VWS V14.01,2013-01-25 19:30:00,
2013-01-25 14:34:00,24.5,-0.5,30.16,NNW,333,3.0,4.0,33,0.00,,---,0.00,VWS V14.01,2013-01-25 19:34:00,
2013-01-25 14:39:00,24.7,-0.3,30.16,NW,322,3.0,4.0,33,0.00,,---,0.00,VWS V14.01,2013-01-25 19:39:00,
2013-01-25 14:44:00,24.5,-0.5,30.16,NNW,329,1.0,7.0,33,0.00,,---,0.00,VWS V14.01,2013-01-25 19:44:00,
2013-01-25 14:49:00,24.5,-0.5,30.16,NNW,330,3.0,7.0,33,0.00,,---,0.00,VWS V14.01,2013-01-25 19:49:00,
2013-01-25 14:54:00,24.4,-1.2,30.16,WNW,295,2.0,7.0,32,0.00,,---,0.00,VWS V14.01,2013-01-25 19:54:00,
2013-01-25 14:59:00,24.2,-0.7,30.16,NNW,328,3.0,7.0,33,0.00,,---,0.00,VWS V14.01,2013-01-25 19:59:00,
2013-01-25 15:00:00,24.2,-0.7,30.17,West,272,0.0,6.0,33,0.00,,---,0.00,VWS V14.01,2013-01-25 20:00:00,
2013-01-25 15:04:00,24.2,-0.7,30.15,NW,314,2.0,4.0,33,0.00,,---,0.00,VWS V14.01,2013-01-25 20:04:00,
2013-01-25 15:09:00,24.2,-0.7,30.15,WNW,295,2.0,6.0,33,0.00,,---,0.00,VWS V14.01,2013-01-25 20:09:00,
2013-01-25 15:14:00,24.2,-0.7,30.15,WNW,292,2.0,7.0,33,0.00,,---,0.00,VWS V14.01,2013-01-25 20:14:00,
2013-01-25 15:19:00,24.2,-0.7,30.15,NW,322,1.0,7.0,33,0.00,,---,0.00,VWS V14.01,2013-01-25 20:19:00,
2013-01-25 15:24:00,24.4,-0.6,30.15,WNW,284,2.0,7.0,33,0.00,,---,0.00,VWS V14.01,2013-01-25 20:24:00,
2013-01-25 15:29:00,24.4,-0.6,30.15,NNW,333,3.0,7.0,33,0.00,,---,0.00,VWS V14.01,2013-01-25 20:29:00,
2013-01-25 15:30:00,24.4,-0.6,30.16,NNW,336,3.0,6.0,33,0.00,,---,0.00,VWS V14.01,2013-01-25 20:30:00,
2013-01-25 15:34:00,24.2,-0.7,30.14,NNW,333,4.0,5.0,33,0.00,,---,0.00,VWS V14.01,2013-01-25 20:34:00,
2013-01-25 15:39:00,24.1,-0.8,30.14,NNW,333,2.0,5.0,33,0.00,,---,0.00,VWS V14.01,2013-01-25 20:39:00,
2013-01-25 15:44:00,24.1,-0.8,30.14,NNW,333,2.0,5.0,33,0.00,,---,0.00,VWS V14.01,2013-01-25 20:44:00,
2013-01-25 15:49:00,24.1,-0.8,30.13,NNW,333,1.0,5.0,33,0.00,,---,0.00,VWS V14.01,2013-01-25 20:49:00,
2013-01-25 15:54:00,23.9,-1.0,30.13,North,351,2.0,6.0,33,0.00,,---,0.00,VWS V14.01,2013-01-25 20:54:00,
2013-01-25 15:59:00,23.9,-1.0,30.13,NW,309,4.0,6.0,33,0.00,,---,0.00,VWS V14.01,2013-01-25 20:59:00,
2013-01-25 16:00:00,24.2,-0.7,30.15,NW,326,3.0,7.0,33,0.00,,---,0.00,VWS V14.01,2013-01-25 21:00:00,
2013-01-25 16:04:00,23.8,-1.1,30.13,NW,309,3.0,5.0,33,0.00,,---,0.00,VWS V14.01,2013-01-25 21:04:00,
2013-01-25 16:09:00,23.6,-1.3,30.13,NW,318,1.0,5.0,33,0.00,,---,0.00,VWS V14.01,2013-01-25 21:09:00,
2013-01-25 16:14:00,23.6,-1.3,30.13,NW,316,4.0,5.0,33,0.00,,---,0.00,VWS V14.01,2013-01-25 21:14:00,
2013-01-25 16:19:00,23.6,-1.3,30.13,NW,316,2.0,5.0,33,0.00,,---,0.00,VWS V14.01,2013-01-25 21:19:00,
2013-01-25 16:24:00,23.6,-1.3,30.13,NW,315,0.0,5.0,33,0.00,,---,0.00,VWS V14.01,2013-01-25 21:24:00,
2013-01-25 16:29:00,23.6,-1.3,30.13,NW,316,2.0,5.0,33,0.00,,---,0.00,VWS V14.01,2013-01-25 21:29:00,
2013-01-25 16:30:00,24.2,-0.7,30.14,NNW,333,3.0,7.0,33,0.00,,---,0.00,VWS V14.01,2013-01-25 21:30:00,
2013-01-25 16:34:00,23.6,-1.3,30.13,NW,316,1.0,3.0,33,0.00,,---,0.00,VWS V14.01,2013-01-25 21:34:00,
2013-01-25 16:39:00,23.6,-1.3,30.13,NW,316,3.0,5.0,33,0.00,,---,0.00,VWS V14.01,2013-01-25 21:39:00,
2013-01-25 16:44:00,23.5,-1.4,30.13,NW,316,3.0,5.0,33,0.00,,---,0.00,VWS V14.01,2013-01-25 21:44:00,
2013-01-25 16:49:00,23.5,-1.4,30.13,NW,316,1.0,5.0,33,0.00,,---,0.00,VWS V14.01,2013-01-25 21:49:00,
2013-01-25 16:54:00,23.3,-1.5,30.13,NW,321,2.0,5.0,33,0.00,,---,0.00,VWS V14.01,2013-01-25 21:54:00,
2013-01-25 16:59:00,23.3,-1.5,30.13,NW,321,0.0,5.0,33,0.00,,---,0.00,VWS V14.01,2013-01-25 21:59:00,
2013-01-25 17:00:00,23.9,-1.0,30.13,NW,309,1.0,6.0,33,0.00,,---,0.00,VWS V14.01,2013-01-25 22:00:00,
2013-01-25 17:04:00,23.3,-1.5,30.12,NW,321,1.0,2.0,33,0.00,,---,0.00,VWS V14.01,2013-01-25 22:04:00,
2013-01-25 17:09:00,23.3,-1.5,30.12,NW,321,1.0,3.0,33,0.00,,---,0.00,VWS V14.01,2013-01-25 22:09:00,
2013-01-25 17:14:00,23.3,-1.5,30.12,NW,321,1.0,3.0,33,0.00,,---,0.00,VWS V14.01,2013-01-25 22:14:00,
2013-01-25 17:19:00,23.2,-1.6,30.12,NW,321,0.0,3.0,33,0.00,,---,0.00,VWS V14.01,2013-01-25 22:19:00,
2013-01-25 17:24:00,23.2,-1.6,30.12,NW,321,0.0,3.0,33,0.00,,---,0.00,VWS V14.01,2013-01-25 22:24:00,
2013-01-25 17:29:00,23.2,-1.6,30.12,NW,321,1.0,3.0,33,0.00,,---,0.00,VWS V14.01,2013-01-25 22:29:00,
2013-01-25 17:30:00,23.6,-1.3,30.13,NW,316,3.0,5.0,33,0.00,,---,0.00,VWS V14.01,2013-01-25 22:30:00,
2013-01-25 17:34:00,23.2,-1.6,30.11,NW,321,1.0,3.0,33,0.00,,---,0.00,VWS V14.01,2013-01-25 22:34:00,
2013-01-25 17:39:00,23.0,-1.8,30.11,NW,321,2.0,3.0,33,0.00,,---,0.00,VWS V14.01,2013-01-25 22:39:00,
2013-01-25 17:44:00,23.0,-1.2,30.11,NW,321,0.0,3.0,34,0.00,,---,0.00,VWS V14.01,2013-01-25 22:44:00,
2013-01-25 17:49:00,23.2,-1.0,30.10,NW,321,2.0,3.0,34,0.00,,---,0.00,VWS V14.01,2013-01-25 22:49:00,
2013-01-25 17:54:00,23.0,-1.2,30.10,NW,321,0.0,3.0,34,0.00,,---,0.00,VWS V14.01,2013-01-25 22:54:00,
2013-01-25 17:59:00,22.9,-1.3,30.10,West,275,3.0,4.0,34,0.00,,---,0.00,VWS V14.01,2013-01-25 22:59:00,
2013-01-25 18:00:00,23.3,-1.5,30.12,NW,321,0.0,5.0,33,0.00,,---,0.00,VWS V14.01,2013-01-25 23:00:00,
2013-01-25 18:04:00,22.7,-1.4,30.10,West,275,1.0,4.0,34,0.00,,---,0.00,VWS V14.01,2013-01-25 23:04:00,
2013-01-25 18:09:00,22.5,-1.6,30.10,WSW,258,2.0,5.0,34,0.00,,---,0.00,VWS V14.01,2013-01-25 23:09:00,
2013-01-25 18:14:00,22.5,-1.6,30.10,WSW,258,2.0,5.0,34,0.00,,---,0.00,VWS V14.01,2013-01-25 23:14:00,
2013-01-25 18:19:00,22.5,-1.6,30.10,WSW,258,1.0,5.0,34,0.00,,---,0.00,VWS V14.01,2013-01-25 23:19:00,
2013-01-25 18:24:00,22.4,-1.7,30.10,WSW,258,4.0,5.0,34,0.00,,---,0.00,VWS V14.01,2013-01-25 23:24:00,
2013-01-25 18:29:00,22.4,-1.7,30.10,WSW,258,0.0,5.0,34,0.00,,---,0.00,VWS V14.01,2013-01-25 23:29:00,
2013-01-25 18:30:00,23.2,-1.6,30.11,NW,321,1.0,3.0,33,0.00,,---,0.00,VWS V14.01,2013-01-25 23:30:00,
2013-01-25 18:34:00,22.4,-1.7,30.09,WSW,258,1.0,3.0,34,0.00,,---,0.00,VWS V14.01,2013-01-25 23:34:00,
2013-01-25 18:39:00,22.2,-1.9,30.09,WSW,258,0.0,3.0,34,0.00,,---,0.00,VWS V14.01,2013-01-25 23:39:00,
2013-01-25 18:44:00,22.4,-1.7,30.09,WSW,258,0.0,3.0,34,0.00,,---,0.00,VWS V14.01,2013-01-25 23:44:00,
2013-01-25 18:49:00,22.4,-1.7,30.08,WSW,258,1.0,3.0,34,0.00,,---,0.00,VWS V14.01,2013-01-25 23:49:00,
2013-01-25 18:54:00,22.4,-1.7,30.08,WSW,258,0.0,3.0,34,0.00,,---,0.00,VWS V14.01,2013-01-25 23:54:00,
2013-01-25 18:59:00,22.5,-1.6,30.08,WSW,258,0.0,3.0,34,0.00,,---,0.00,VWS V14.01,2013-01-25 23:59:00,
2013-01-25 19:00:00,22.9,-1.3,30.10,West,275,2.0,4.0,34,0.00,,---,0.00,VWS V14.01,2013-01-26 00:00:00,
2013-01-25 19:04:00,22.5,-1.6,30.08,WSW,258,0.0,2.0,34,0.00,,---,0.00,VWS V14.01,2013-01-26 00:04:00,
2013-01-25 19:09:00,22.5,-1.6,30.08,WSW,258,0.0,2.0,34,0.00,,---,0.00,VWS V14.01,2013-01-26 00:09:00,
2013-01-25 19:14:00,22.4,-1.7,30.08,WSW,258,0.0,2.0,34,0.00,,---,0.00,VWS V14.01,2013-01-26 00:14:00,
2013-01-25 19:19:00,22.2,-1.9,30.07,WSW,258,0.0,2.0,34,0.00,,---,0.00,VWS V14.01,2013-01-26 00:19:00,
2013-01-25 19:24:00,22.2,-1.9,30.07,WSW,258,0.0,2.0,34,0.00,,---,0.00,VWS V14.01,2013-01-26 00:24:00,
2013-01-25 19:29:00,22.2,-1.9,30.07,WSW,258,0.0,2.0,34,0.00,,---,0.00,VWS V14.01,2013-01-26 00:29:00,
2013-01-25 19:30:00,22.4,-1.7,30.09,WSW,258,0.0,5.0,34,0.00,,---,0.00,VWS V14.01,2013-01-26 00:30:00,
2013-01-25 19:34:00,22.2,-1.9,30.06,WSW,258,0.0,3.0,34,0.00,,---,0.00,VWS V14.01,2013-01-26 00:34:00,
2013-01-25 19:39:00,22.1,-2.0,30.06,WSW,258,0.0,3.0,34,0.00,,---,0.00,VWS V14.01,2013-01-26 00:39:00,
2013-01-25 19:44:00,22.1,-2.0,30.06,West,262,0.0,3.0,34,0.00,,---,0.00,VWS V14.01,2013-01-26 00:44:00,
2013-01-25 19:49:00,22.1,-2.0,30.05,West,262,0.0,3.0,34,0.00,,---,0.00,VWS V14.01,2013-01-26 00:49:00,
2013-01-25 19:54:00,22.1,-2.0,30.05,West,262,0.0,3.0,34,0.00,,---,0.00,VWS V14.01,2013-01-26 00:54:00,
2013-01-25 19:59:00,22.2,-1.9,30.05,West,262,1.0,3.0,34,0.00,,---,0.00,VWS V14.01,2013-01-26 00:59:00,
2013-01-25 20:00:00,22.5,-1.6,30.08,WSW,258,0.0,3.0,34,0.00,,---,0.00,VWS V14.01,2013-01-26 01:00:00,
2013-01-25 20:04:00,22.2,-1.9,30.05,West,262,0.0,2.0,34,0.00,,---,0.00,VWS V14.01,2013-01-26 01:04:00,
2013-01-25 20:09:00,22.2,-1.9,30.05,West,262,0.0,2.0,34,0.00,,---,0.00,VWS V14.01,2013-01-26 01:09:00,
2013-01-25 20:14:00,22.2,-1.9,30.05,West,266,1.0,4.0,34,0.00,,---,0.00,VWS V14.01,2013-01-26 01:14:00,
2013-01-25 20:19:00,22.1,-1.4,30.04,West,280,3.0,4.0,35,0.00,,---,0.00,VWS V14.01,2013-01-26 01:19:00,
2013-01-25 20:24:00,21.9,-1.5,30.04,NW,307,4.0,4.0,35,0.00,,---,0.00,VWS V14.01,2013-01-26 01:24:00,
2013-01-25 20:29:00,21.4,-1.4,30.04,NW,307,2.0,4.0,36,0.00,,---,0.00,VWS V14.01,2013-01-26 01:29:00,
2013-01-25 20:30:00,22.2,-1.9,30.06,WSW,258,0.0,2.0,34,0.00,,---,0.00,VWS V14.01,2013-01-26 01:30:00,
2013-01-25 20:34:00,21.3,-1.5,30.04,NW,307,1.0,3.0,36,0.00,,---,0.00,VWS V14.01,2013-01-26 01:34:00,
2013-01-25 20:39:00,21.1,-1.7,30.04,NW,307,2.0,3.0,36,0.00,,---,0.00,VWS V14.01,2013-01-26 01:39:00,
2013-01-25 20:44:00,21.0,-1.2,30.04,NW,307,1.0,3.0,37,0.00,,---,0.00,VWS V14.01,2013-01-26 01:44:00,
2013-01-25 20:49:00,20.6,-1.5,30.04,NW,307,0.0,3.0,37,0.00,,---,0.00,VWS V14.01,2013-01-26 01:49:00,
2013-01-25 20:54:00,20.3,-1.8,30.04,NW,306,0.0,3.0,37,0.00,,---,0.00,VWS V14.01,2013-01-26 01:54:00,
2013-01-25 20:59:00,20.2,-1.9,30.04,NW,307,0.0,3.0,37,0.00,,---,0.00,VWS V14.01,2013-01-26 01:59:00,
2013-01-25 21:00:00,22.2,-1.9,30.05,West,262,0.0,3.0,34,0.00,,---,0.00,VWS V14.01,2013-01-26 02:00:00,
2013-01-25 21:04:00,20.2,-1.9,30.04,NW,307,0.0,1.0,37,0.00,,---,0.00,VWS V14.01,2013-01-26 02:04:00,
2013-01-25 21:09:00,20.0,-1.5,30.04,NW,307,1.0,1.0,38,0.00,,---,0.00,VWS V14.01,2013-01-26 02:09:00,
2013-01-25 21:14:00,19.9,-1.6,30.04,NW,307,0.0,2.0,38,0.00,,---,0.00,VWS V14.01,2013-01-26 02:14:00,
2013-01-25 21:19:00,19.9,-1.6,30.03,NW,307,0.0,2.0,38,0.00,,---,0.00,VWS V14.01,2013-01-26 02:19:00,
2013-01-25 21:24:00,19.9,-1.6,30.03,NW,307,0.0,2.0,38,0.00,,---,0.00,VWS V14.01,2013-01-26 02:24:00,
2013-01-25 21:29:00,19.9,-1.6,30.03,NW,307,0.0,2.0,38,0.00,,---,0.00,VWS V14.01,2013-01-26 02:29:00,
2013-01-25 21:30:00,21.4,-1.4,30.04,NW,307,0.0,4.0,36,0.00,,---,0.00,VWS V14.01,2013-01-26 02:30:00,
2013-01-25 21:34:00,19.9,-1.6,30.02,NW,307,0.0,2.0,38,0.00,,---,0.00,VWS V14.01,2013-01-26 02:34:00,
2013-01-25 21:39:00,19.7,-1.8,30.02,NW,307,0.0,2.0,38,0.00,,---,0.00,VWS V14.01,2013-01-26 02:39:00,
2013-01-25 21:44:00,19.7,-1.8,30.02,NW,307,1.0,3.0,38,0.00,,---,0.00,VWS V14.01,2013-01-26 02:44:00,
2013-01-25 21:49:00,19.5,-2.0,30.01,NW,317,0.0,4.0,38,0.00,,---,0.00,VWS V14.01,2013-01-26 02:49:00,
2013-01-25 21:54:00,19.4,-2.0,30.01,North,358,2.0,4.0,38,0.00,,---,0.00,VWS V14.01,2013-01-26 02:54:00,
2013-01-25 21:59:00,19.4,-2.0,30.01,North,358,3.0,4.0,38,0.00,,---,0.00,VWS V14.01,2013-01-26 02:59:00,
2013-01-25 22:00:00,20.2,-1.9,30.04,NW,307,0.0,3.0,37,0.00,,---,0.00,VWS V14.01,2013-01-26 03:00:00,
2013-01-25 22:04:00,19.2,-2.2,30.01,North,358,1.0,2.0,38,0.00,,---,0.00,VWS V14.01,2013-01-26 03:04:00,
2013-01-25 22:09:00,19.2,-2.2,30.01,North,358,2.0,3.0,38,0.00,,---,0.00,VWS V14.01,2013-01-26 03:09:00,
2013-01-25 22:15:00,19.2,-2.2,30.01,North,358,1.0,3.0,38,0.00,,---,0.00,VWS V14.01,2013-01-26 03:15:00,
2013-01-25 22:20:00,19.2,-2.2,30.01,North,358,2.0,3.0,38,0.00,,---,0.00,VWS V14.01,2013-01-26 03:20:00,
2013-01-25 22:25:00,19.2,-2.2,30.01,North,358,0.0,3.0,38,0.00,,---,0.00,VWS V14.01,2013-01-26 03:25:00,
2013-01-25 22:30:00,19.2,-2.2,30.01,North,358,0.0,3.0,38,0.00,,---,0.00,VWS V14.01,2013-01-26 03:30:00,
2013-01-25 22:35:00,19.2,-2.2,30.00,North,358,1.0,4.0,38,0.00,,---,0.00,VWS V14.01,2013-01-26 03:35:00,
2013-01-25 22:40:00,19.1,-2.3,30.00,North,358,2.0,4.0,38,0.00,,---,0.00,VWS V14.01,2013-01-26 03:40:00,
2013-01-25 22:45:00,19.1,-2.3,30.00,North,359,0.0,4.0,38,0.00,,---,0.00,VWS V14.01,2013-01-26 03:45:00,
2013-01-25 22:50:00,19.1,-2.3,29.99,North,358,2.0,4.0,38,0.00,,---,0.00,VWS V14.01,2013-01-26 03:50:00,
2013-01-25 22:55:00,19.1,-2.3,29.99,North,358,0.0,4.0,38,0.00,,---,0.00,VWS V14.01,2013-01-26 03:55:00,
2013-01-25 23:00:00,18.9,-2.5,29.99,North,358,1.0,4.0,38,0.00,,---,0.00,VWS V14.01,2013-01-26 04:00:00,
2013-01-25 23:05:00,18.9,-2.5,29.99,North,358,1.0,3.0,38,0.00,,---,0.00,VWS V14.01,2013-01-26 04:05:00,
2013-01-25 23:10:00,18.8,-2.6,29.99,North,359,2.0,4.0,38,0.00,,---,0.00,VWS V14.01,2013-01-26 04:10:00,
2013-01-25 23:15:00,18.6,-2.8,29.99,North,0,2.0,4.0,38,0.00,,---,0.00,VWS V14.01,2013-01-26 04:15:00,
2013-01-25 23:20:00,18.6,-2.8,29.99,North,0,1.0,4.0,38,0.00,,---,0.00,VWS V14.01,2013-01-26 04:20:00,
2013-01-25 23:25:00,18.6,-2.2,29.99,North,0,1.0,4.0,39,0.00,,---,0.00,VWS V14.01,2013-01-26 04:25:00,
2013-01-25 23:30:00,18.4,-3.0,29.99,North,0,2.0,4.0,38,0.00,,---,0.00,VWS V14.01,2013-01-26 04:30:00,
2013-01-25 23:35:00,18.3,-3.0,29.99,NNE,17,0.0,2.0,38,0.00,,---,0.00,VWS V14.01,2013-01-26 04:35:00,
2013-01-25 23:40:00,18.1,-3.2,29.99,North,0,1.0,5.0,38,0.00,,---,0.00,VWS V14.01,2013-01-26 04:40:00,
2013-01-25 23:45:00,18.0,-3.3,29.99,North,5,1.0,5.0,38,0.00,,---,0.00,VWS V14.01,2013-01-26 04:45:00,
2013-01-25 23:50:00,17.8,-3.5,29.99,North,4,2.0,5.0,38,0.00,,---,0.00,VWS V14.01,2013-01-26 04:50:00,
2013-01-25 23:55:00,17.8,-3.5,29.99,North,0,0.0,5.0,38,0.00,,---,0.00,VWS V14.01,2013-01-26 04:55:00,